�������l�o���
Date,Time,MP-1(��Sv/h),MP-2(��Sv/h),MP-3(��Sv/h),MP-4(��Sv/h),MP-5(��Sv/h),MP-6(��Sv/h),MP-7(��Sv/h),MP-8(��Sv/h),����,����(m/s),���J
2018/06/15,00:00,0.876,1.252,0.860,1.568,1.090,0.476,0.830,0.790,��쐼,3.1,��
2018/06/15,00:10,0.874,1.250,0.860,1.567,1.091,0.474,0.831,0.792,��,3.3,��
2018/06/15,00:20,0.876,1.249,0.858,1.569,1.093,0.476,0.829,0.790,��쐼,2.9,��
2018/06/15,00:30,0.874,1.250,0.861,1.566,1.093,0.476,0.828,0.791,��쐼,2.9,��
2018/06/15,00:40,0.876,1.250,0.861,1.567,1.092,0.476,0.831,0.793,��쐼,2.3,��
2018/06/15,00:50,0.873,1.251,0.861,1.566,1.091,0.475,0.830,0.790,��쐼,1.7,��
2018/06/15,01:00,0.875,1.250,0.860,1.570,1.091,0.476,0.829,0.791,��,1.1,��
2018/06/15,01:10,0.877,1.252,0.861,1.569,1.092,0.476,0.830,0.791,�k��,1.2,��
2018/06/15,01:20,0.876,1.250,0.861,1.566,1.091,0.477,0.829,0.791,�k�k��,1.5,��
2018/06/15,01:30,0.873,1.252,0.860,1.566,1.094,0.477,0.827,0.792,�k,2.9,��
2018/06/15,01:40,0.874,1.250,0.860,1.566,1.091,0.475,0.827,0.792,�k,4.6,��
2018/06/15,01:50,0.874,1.248,0.859,1.567,1.094,0.476,0.828,0.793,�k,4.1,��
2018/06/15,02:00,0.874,1.250,0.862,1.566,1.092,0.475,0.828,0.791,�k,4.1,��
2018/06/15,02:10,0.876,1.252,0.861,1.567,1.091,0.476,0.827,0.791,�k,3.8,��
2018/06/15,02:20,0.877,1.250,0.859,1.567,1.091,0.475,0.827,0.794,�k�k��,3.5,��
2018/06/15,02:30,0.875,1.251,0.860,1.569,1.091,0.476,0.827,0.792,�k�k��,3.9,��
2018/06/15,02:40,0.876,1.249,0.861,1.565,1.091,0.476,0.827,0.790,�k,2.9,��
2018/06/15,02:50,0.877,1.248,0.861,1.565,1.091,0.474,0.827,0.792,�k�k��,2.6,��
2018/06/15,03:00,0.874,1.248,0.860,1.568,1.092,0.475,0.828,0.792,�k�k��,3.3,��
2018/06/15,03:10,0.875,1.250,0.861,1.567,1.091,0.476,0.829,0.791,�k�k��,3.5,��
2018/06/15,03:20,0.874,1.250,0.859,1.568,1.093,0.475,0.827,0.791,�k�k��,3.5,��
2018/06/15,03:30,0.873,1.251,0.860,1.566,1.092,0.476,0.828,0.792,�k�k��,3.2,��
2018/06/15,03:40,0.875,1.250,0.861,1.564,1.092,0.475,0.826,0.791,�k�k��,3.8,��
2018/06/15,03:50,0.873,1.248,0.858,1.568,1.092,0.475,0.828,0.793,�k�k��,4.3,��
2018/06/15,04:00,0.876,1.249,0.860,1.568,1.090,0.474,0.828,0.789,�k�k��,3.9,��
2018/06/15,04:10,0.874,1.249,0.861,1.565,1.092,0.475,0.827,0.791,�k�k��,4.8,��
2018/06/15,04:20,0.876,1.254,0.862,1.566,1.092,0.475,0.828,0.790,�k�k��,5.0,��
2018/06/15,04:30,0.875,1.249,0.862,1.569,1.093,0.474,0.827,0.792,�k�k��,4.4,��
2018/06/15,04:40,0.874,1.249,0.861,1.566,1.093,0.475,0.827,0.792,�k�k��,5.0,��
2018/06/15,04:50,0.872,1.249,0.860,1.567,1.092,0.474,0.826,0.792,�k�k��,4.5,��
2018/06/15,05:00,0.875,1.248,0.861,1.566,1.090,0.474,0.829,0.792,�k�k��,5.1,��
2018/06/15,05:10,0.876,1.251,0.860,1.570,1.091,0.476,0.826,0.790,�k�k��,5.3,��
2018/06/15,05:20,0.875,1.250,0.861,1.565,1.092,0.472,0.827,0.791,�k�k��,4.6,�L
2018/06/15,05:30,0.875,1.250,0.860,1.569,1.092,0.473,0.827,0.792,�k�k��,4.8,�L
2018/06/15,05:40,0.873,1.249,0.860,1.567,1.093,0.475,0.826,0.791,�k�k��,5.3,��
2018/06/15,05:50,0.875,1.250,0.859,1.567,1.090,0.473,0.827,0.792,�k��,4.9,��
2018/06/15,06:00,0.874,1.250,0.859,1.567,1.091,0.473,0.826,0.790,�k�k��,4.6,��
2018/06/15,06:10,0.874,1.249,0.860,1.565,1.091,0.475,0.825,0.791,�k�k��,5.3,��
2018/06/15,06:20,0.874,1.250,0.859,1.565,1.090,0.473,0.828,0.791,�k�k��,4.8,��
2018/06/15,06:30,0.873,1.250,0.860,1.566,1.092,0.475,0.826,0.791,�k�k��,5.6,��
2018/06/15,06:40,0.875,1.251,0.861,1.566,1.090,0.474,0.827,0.791,�k�k��,4.8,�L
2018/06/15,06:50,0.874,1.249,0.858,1.568,1.091,0.473,0.826,0.793,�k�k��,4.3,�L
2018/06/15,07:00,0.875,1.251,0.859,1.564,1.092,0.474,0.827,0.793,�k�k��,5.0,�L
2018/06/15,07:10,0.876,1.250,0.860,1.568,1.090,0.473,0.825,0.791,�k�k��,4.5,�L
2018/06/15,07:20,0.872,1.245,0.859,1.565,1.092,0.472,0.828,0.791,�k�k��,4.8,�L
2018/06/15,07:30,0.872,1.243,0.857,1.565,1.089,0.473,0.825,0.791,�k�k��,4.9,�L
2018/06/15,07:40,0.872,1.243,0.858,1.562,1.088,0.472,0.826,0.792,�k�k��,4.9,�L
2018/06/15,07:50,0.871,1.241,0.854,1.564,1.090,0.472,0.825,0.791,�k�k��,5.2,�L
2018/06/15,08:00,0.870,1.243,0.856,1.559,1.089,0.473,0.825,0.791,�k�k��,4.7,�L
2018/06/15,08:10,0.868,1.240,0.856,1.561,1.088,0.473,0.824,0.790,�k�k��,5.3,�L
2018/06/15,08:20,0.869,1.237,0.855,1.557,1.089,0.472,0.825,0.792,�k�k��,5.5,�L
2018/06/15,08:30,0.865,1.231,0.853,1.557,1.087,0.473,0.825,0.791,�k�k��,7.1,�L
2018/06/15,08:40,0.864,1.224,0.850,1.552,1.081,0.472,0.825,0.790,�k,5.9,�L
2018/06/15,08:50,0.862,1.217,0.849,1.550,1.080,0.473,0.825,0.790,�k��,4.8,�L
2018/06/15,09:00,0.862,1.210,0.849,1.548,1.080,0.474,0.823,0.790,���k��,5.0,�L
2018/06/15,09:10,0.860,1.209,0.846,1.549,1.078,0.471,0.823,0.790,���k��,2.0,�L
2018/06/15,09:20,0.861,1.207,0.847,1.544,1.074,0.471,0.823,0.790,�k�k��,2.9,�L
2018/06/15,09:30,0.860,1.208,0.848,1.543,1.075,0.471,0.822,0.789,�k�k��,3.4,�L
2018/06/15,09:40,0.861,1.211,0.847,1.545,1.074,0.470,0.823,0.789,�k�k��,2.2,�L
2018/06/15,09:50,0.859,1.209,0.846,1.545,1.073,0.473,0.822,0.787,�k,1.7,��
2018/06/15,10:00,0.862,1.212,0.846,1.545,1.075,0.471,0.823,0.790,�k��,1.2,��
2018/06/15,10:10,0.861,1.215,0.844,1.543,1.074,0.472,0.823,0.790,�k��,2.6,��
2018/06/15,10:20,0.862,1.214,0.846,1.543,1.075,0.472,0.822,0.789,�k��,2.3,��
2018/06/15,10:30,0.861,1.217,0.844,1.546,1.075,0.472,0.823,0.790,�k��,2.3,��
2018/06/15,10:40,0.862,1.219,0.847,1.547,1.076,0.471,0.824,0.788,�k��,2.3,��
2018/06/15,10:50,0.860,1.218,0.845,1.544,1.074,0.471,0.823,0.788,�k�k��,2.5,��
2018/06/15,11:00,0.860,1.213,0.846,1.548,1.072,0.470,0.823,0.788,���k��,0.6,��
2018/06/15,11:10,0.859,1.209,0.848,1.549,1.075,0.470,0.822,0.789,���k��,1.5,��
2018/06/15,11:20,0.861,1.214,0.846,1.547,1.071,0.471,0.824,0.787,�k��,1.4,��
2018/06/15,11:30,0.861,1.213,0.846,1.548,1.074,0.470,0.824,0.789,�k,0.9,��
2018/06/15,11:40,0.861,1.213,0.846,1.547,1.074,0.468,0.824,0.788,���k��,1.4,��
2018/06/15,11:50,0.861,1.213,0.846,1.548,1.071,0.469,0.822,0.789,�k�k��,0.8,�L
2018/06/15,12:00,0.861,1.215,0.848,1.548,1.073,0.469,0.824,0.790,���k��,2.0,�L
2018/06/15,12:10,0.859,1.214,0.847,1.548,1.075,0.471,0.824,0.789,�k��,1.5,�L
2018/06/15,12:20,0.860,1.213,0.848,1.552,1.076,0.469,0.826,0.789,�k�k��,1.7,�L
2018/06/15,12:30,0.860,1.216,0.848,1.550,1.075,0.469,0.824,0.788,�k�k��,1.5,��
2018/06/15,12:40,0.858,1.216,0.850,1.551,1.075,0.469,0.826,0.787,�k,1.9,��
2018/06/15,12:50,0.858,1.217,0.845,1.552,1.076,0.467,0.825,0.788,���k��,1.9,��
2018/06/15,13:00,0.858,1.215,0.845,1.552,1.075,0.466,0.827,0.788,�k,2.8,��
2018/06/15,13:10,0.861,1.216,0.846,1.548,1.074,0.466,0.827,0.788,�k,3.0,��
2018/06/15,13:20,0.859,1.214,0.846,1.551,1.075,0.467,0.826,0.789,�k�k��,2.6,��
2018/06/15,13:30,0.861,1.217,0.848,1.549,1.077,0.466,0.826,0.788,�k�k��,2.6,��
2018/06/15,13:40,0.860,1.216,0.846,1.551,1.074,0.466,0.827,0.787,�k�k��,3.3,�L
2018/06/15,13:50,0.858,1.219,0.846,1.549,1.077,0.466,0.826,0.788,�k�k��,4.9,�L
2018/06/15,14:00,0.858,1.218,0.847,1.548,1.075,0.466,0.827,0.789,�k,4.2,�L
2018/06/15,14:10,0.857,1.215,0.847,1.548,1.074,0.464,0.826,0.788,�k,4.4,�L
2018/06/15,14:20,0.857,1.214,0.846,1.549,1.075,0.466,0.826,0.788,�k�k��,3.1,�L
2018/06/15,14:30,0.857,1.210,0.842,1.544,1.068,0.464,0.824,0.785,���k��,3.9,�L
2018/06/15,14:40,0.856,1.204,0.840,1.540,1.066,0.465,0.822,0.784,��,4.1,�L
2018/06/15,14:50,0.855,1.204,0.839,1.538,1.059,0.464,0.820,0.784,��,3.2,�L
2018/06/15,15:00,0.852,1.201,0.838,1.536,1.059,0.465,0.819,0.785,��,3.4,�L
2018/06/15,15:10,0.853,1.196,0.836,1.532,1.058,0.465,0.819,0.782,���k��,4.7,�L
2018/06/15,15:20,0.850,1.191,0.832,1.524,1.048,0.463,0.818,0.780,���k��,5.4,�L
2018/06/15,15:30,0.847,1.187,0.831,1.520,1.047,0.462,0.818,0.780,���k��,5.7,�L
2018/06/15,15:40,0.847,1.183,0.829,1.514,1.050,0.462,0.816,0.778,���k��,5.5,�L
2018/06/15,15:50,0.843,1.181,0.831,1.511,1.048,0.460,0.814,0.778,���k��,5.5,�L
2018/06/15,16:00,0.840,1.174,0.828,1.504,1.044,0.461,0.815,0.778,���k��,5.5,�L
2018/06/15,16:10,0.842,1.171,0.826,1.504,1.041,0.461,0.814,0.777,���k��,5.2,�L
2018/06/15,16:20,0.838,1.169,0.824,1.496,1.036,0.460,0.812,0.774,���k��,5.8,�L
2018/06/15,16:30,0.836,1.168,0.823,1.490,1.035,0.460,0.810,0.774,���k��,6.7,�L
2018/06/15,16:40,0.840,1.171,0.825,1.493,1.033,0.460,0.809,0.776,���k��,6.9,�L
2018/06/15,16:50,0.840,1.174,0.824,1.492,1.032,0.462,0.808,0.774,���k��,6.8,�L
2018/06/15,17:00,0.839,1.172,0.825,1.491,1.032,0.463,0.809,0.774,���k��,7.4,�L
2018/06/15,17:10,0.839,1.170,0.824,1.492,1.032,0.463,0.811,0.774,���k��,8.1,�L
2018/06/15,17:20,0.839,1.169,0.823,1.493,1.034,0.463,0.810,0.775,���k��,8.2,�L
2018/06/15,17:30,0.839,1.172,0.825,1.494,1.034,0.462,0.809,0.774,���k��,7.7,�L
2018/06/15,17:40,0.841,1.175,0.826,1.497,1.035,0.464,0.808,0.777,���k��,7.7,�L
2018/06/15,17:50,0.842,1.179,0.827,1.496,1.035,0.465,0.811,0.776,���k��,8.8,�L
2018/06/15,18:00,0.842,1.178,0.827,1.500,1.038,0.463,0.810,0.776,���k��,8.3,�L
2018/06/15,18:10,0.841,1.178,0.828,1.499,1.036,0.464,0.811,0.777,���k��,7.9,�L
2018/06/15,18:20,0.843,1.177,0.829,1.498,1.036,0.464,0.809,0.776,���k��,8.0,�L
2018/06/15,18:30,0.840,1.178,0.825,1.500,1.037,0.465,0.810,0.777,���k��,8.7,�L
2018/06/15,18:40,0.840,1.179,0.826,1.498,1.035,0.466,0.809,0.776,���k��,8.7,�L
2018/06/15,18:50,0.840,1.177,0.825,1.499,1.037,0.464,0.809,0.777,�k��,8.9,�L
2018/06/15,19:00,0.840,1.176,0.825,1.502,1.036,0.463,0.809,0.776,���k��,8.8,�L
2018/06/15,19:10,0.838,1.178,0.826,1.502,1.038,0.465,0.810,0.777,���k��,7.9,�L
2018/06/15,19:20,0.839,1.180,0.825,1.502,1.035,0.464,0.809,0.778,���k��,7.7,�L
2018/06/15,19:30,0.839,1.177,0.824,1.497,1.036,0.465,0.810,0.776,�k��,7.3,�L
2018/06/15,19:40,0.841,1.178,0.826,1.497,1.034,0.464,0.811,0.776,�k��,7.4,�L
2018/06/15,19:50,0.841,1.182,0.825,1.502,1.033,0.464,0.810,0.777,���k��,7.4,�L
2018/06/15,20:00,0.842,1.184,0.825,1.499,1.036,0.464,0.809,0.777,�k��,6.8,�L
2018/06/15,20:10,0.840,1.185,0.824,1.500,1.037,0.464,0.809,0.779,�k��,6.0,�L
2018/06/15,20:20,0.841,1.183,0.825,1.501,1.037,0.465,0.809,0.778,�k��,5.5,�L
2018/06/15,20:30,0.839,1.183,0.822,1.501,1.035,0.465,0.808,0.776,�k�k��,5.8,�L
2018/06/15,20:40,0.840,1.182,0.825,1.500,1.034,0.464,0.807,0.775,�k��,7.0,�L
2018/06/15,20:50,0.838,1.175,0.822,1.498,1.035,0.465,0.807,0.774,�k�k��,6.7,�L
2018/06/15,21:00,0.837,1.172,0.822,1.497,1.033,0.462,0.806,0.776,�k�k��,6.7,�L
2018/06/15,21:10,0.835,1.172,0.823,1.494,1.029,0.462,0.806,0.777,�k�k��,7.2,�L
2018/06/15,21:20,0.837,1.168,0.820,1.491,1.028,0.462,0.806,0.776,�k�k��,7.1,�L
2018/06/15,21:30,0.839,1.172,0.820,1.493,1.032,0.461,0.804,0.775,�k�k��,6.6,�L
2018/06/15,21:40,0.837,1.172,0.823,1.492,1.029,0.462,0.806,0.774,�k�k��,6.2,�L
2018/06/15,21:50,0.840,1.174,0.822,1.492,1.031,0.461,0.808,0.775,�k,6.2,�L
2018/06/15,22:00,0.837,1.177,0.823,1.494,1.034,0.462,0.809,0.776,�k,5.2,�L
2018/06/15,22:10,0.840,1.178,0.823,1.496,1.036,0.462,0.808,0.776,�k,5.7,�L
2018/06/15,22:20,0.839,1.180,0.822,1.495,1.038,0.464,0.808,0.778,�k,5.1,�L
2018/06/15,22:30,0.838,1.181,0.821,1.499,1.039,0.461,0.808,0.777,�k,5.1,�L
2018/06/15,22:40,0.838,1.181,0.824,1.498,1.038,0.462,0.809,0.779,�k,4.9,�L
2018/06/15,22:50,0.838,1.179,0.823,1.495,1.037,0.463,0.809,0.778,�k�k��,4.3,�L
2018/06/15,23:00,0.838,1.176,0.822,1.494,1.034,0.463,0.808,0.777,�k�k��,4.3,�L
2018/06/15,23:10,0.830,1.166,0.819,1.485,1.031,0.461,0.805,0.774,�k�k��,6.1,�L
2018/06/15,23:20,0.827,1.159,0.813,1.474,1.023,0.459,0.803,0.771,�k�k��,5.7,�L
2018/06/15,23:30,0.828,1.159,0.814,1.470,1.021,0.457,0.801,0.771,�k�k��,8.2,�L
2018/06/15,23:40,0.827,1.159,0.815,1.475,1.019,0.458,0.803,0.770,�k�k��,7.8,�L
2018/06/15,23:50,0.831,1.162,0.816,1.477,1.019,0.457,0.802,0.769,�k�k��,8.4,�L
